Location: Ostrava
(49.8330°N, 18.2830°E)
Time: 07:44:15
(UTC+02:00)

Transit 2A - All Passes

Search period start: 05 September 2015 00:00
Search period end: 15 September 2015 00:00
Orbit: 599 x 961 km, 66.7° (Epoch: 04 September)

Date Brightness Start Highest point End Pass type
(mag) Time Alt. Az. Time Alt. Az. Time Alt. Az.
05 Sep - 01:08:05 10° WSW 01:13:19 40° NW 01:18:03 10° NNE visible
05 Sep - 02:54:58 10° NW 02:57:50 15° NNW 03:00:31 10° NNE visible
05 Sep - 04:41:57 10° N 04:43:10 11° N 04:44:24 10° NNE visible
05 Sep - 06:24:37 10° NNW 06:28:14 22° NNE 06:31:43 10° E daylight
05 Sep - 08:07:27 10° NW 08:12:02 82° SW 08:16:22 10° SSE daylight
05 Sep - 09:53:11 10° W 09:54:25 11° WSW 09:55:24 10° WSW daylight
05 Sep - 22:51:14 10° S 22:56:13 33° ESE 23:00:52 10° NE visible
06 Sep - 00:33:53 10° SW 00:39:20 52° NW 00:44:17 10° NNE visible
06 Sep - 02:20:14 10° WNW 02:23:38 17° NNW 02:26:47 10° NNE visible
06 Sep - 04:07:55 10° N 04:08:53 11° N 04:09:51 10° NNE visible
06 Sep - 05:50:54 10° NNW 05:54:05 18° NNE 05:57:11 10° ENE daylight
06 Sep - 07:33:36 10° NNW 07:38:11 71° NE 07:42:30 10° SE daylight
06 Sep - 09:17:57 10° WNW 09:20:47 16° WSW 09:23:25 10° SSW daylight
06 Sep - 22:18:05 10° SSE 22:22:29 24° ESE 22:26:40 10° ENE visible
06 Sep - 23:59:48 10° SW 00:05:25 69° NW 00:10:28 10° NNE visible
07 Sep - 01:45:34 10° WNW 01:49:28 20° NNW 01:53:03 10° NNE visible
07 Sep - 03:33:30 10° NNW 03:34:36 11° N 03:35:40 10° N visible
07 Sep - 05:17:11 10° NNW 05:19:53 15° NNE 05:22:34 10° ENE visible
07 Sep - 06:59:46 10° NNW 07:04:15 50° NE 07:08:30 10° ESE daylight
07 Sep - 08:43:31 10° WNW 08:47:07 24° WSW 08:50:33 10° SSW daylight
07 Sep - 21:45:19 10° SSE 21:48:46 17° ESE 21:52:14 10° ENE visible
07 Sep - 23:25:52 10° SW 23:31:32 89° ESE 23:36:38 10° NE visible
08 Sep - 01:11:00 10° W 01:15:20 24° NW 01:19:20 10° NNE visible
08 Sep - 02:58:48 10° NNW 03:00:19 11° N 03:01:45 10° N visible
08 Sep - 04:43:28 10° N 04:45:40 13° NNE 04:47:52 10° NE visible
08 Sep - 06:25:59 10° NNW 06:30:16 37° NE 06:34:21 10° ESE daylight
08 Sep - 08:09:21 10° NW 08:13:25 34° WSW 08:17:19 10° S daylight
08 Sep - 21:13:15 10° SE 21:15:06 12° ESE 21:17:11 10° E visible
08 Sep - 22:52:05 10° SSW 22:57:40 67° ESE 23:02:45 10° NE visible
09 Sep - 00:36:31 10° W 00:41:16 29° NW 00:45:36 10° NNE visible
09 Sep - 02:24:00 10° NW 02:26:03 12° NNW 02:27:59 10° N visible
09 Sep - 04:09:45 10° N 04:11:25 12° NNE 04:13:06 10° NNE visible
09 Sep - 05:52:14 10° NNW 05:56:14 29° NE 06:00:05 10° E daylight
09 Sep - 07:35:18 10° NW 07:39:40 50° WSW 07:43:51 10° SSE daylight
09 Sep - 22:18:27 10° SSW 22:23:52 49° ESE 22:28:48 10° NE visible
10 Sep - 00:02:09 10° WSW 00:07:13 37° NW 00:11:50 10° NNE visible
10 Sep - 01:49:12 10° NW 01:51:48 14° NNW 01:54:14 10° NNE visible
10 Sep - 03:35:59 10° N 03:37:09 11° N 03:38:19 10° NNE visible
10 Sep - 05:18:29 10° NNW 05:22:09 23° NNE 05:25:41 10° E visible
10 Sep - 07:01:21 10° NW 07:05:52 74° WSW 07:10:10 10° SSE daylight
10 Sep - 21:45:01 10° S 21:50:05 35° ESE 21:54:46 10° NE visible
10 Sep - 23:27:54 10° WSW 23:33:15 48° NW 23:38:04 10° NNE visible
11 Sep - 01:14:26 10° WNW 01:17:36 16° NNW 01:20:31 10° NNE visible
11 Sep - 03:02:06 10° N 03:02:52 10° N 03:03:39 10° NNE visible
11 Sep - 04:44:46 10° NNW 04:48:01 19° NNE 04:51:11 10° ENE visible
11 Sep - 06:27:28 10° NW 06:32:01 78° NE 06:36:21 10° SE daylight
11 Sep - 08:12:04 10° WNW 08:14:34 15° WSW 08:16:52 10° SW daylight
11 Sep - 21:11:49 10° SSE 21:16:19 26° ESE 21:20:36 10° ENE visible
11 Sep - 22:53:48 10° SW 22:59:18 63° NW 23:04:17 10° NNE visible
12 Sep - 00:39:45 10° WNW 00:43:25 19° NNW 00:46:48 10° NNE visible
12 Sep - 02:27:49 10° NNW 02:28:35 10° N 02:29:20 10° N visible
12 Sep - 04:11:03 10° NNW 04:13:50 16° NNE 04:16:35 10° ENE visible
12 Sep - 05:53:38 10° NNW 05:58:07 55° NE 06:02:22 10° SE daylight
12 Sep - 07:37:31 10° WNW 07:40:54 21° WSW 07:44:08 10° SSW daylight
12 Sep - 20:38:56 10° SSE 20:42:36 19° ESE 20:46:14 10° ENE visible
12 Sep - 22:19:49 10° SW 22:25:25 84° NW 22:30:27 10° NE visible
13 Sep - 00:05:08 10° W 00:09:17 22° NNW 00:13:05 10° NNE visible
13 Sep - 01:53:06 10° NNW 01:54:18 11° N 01:55:26 10° N visible
13 Sep - 03:37:22 10° N 03:39:37 13° NNE 03:41:53 10° NE visible
13 Sep - 05:19:50 10° NNW 05:24:09 40° NE 05:28:16 10° ESE visible
13 Sep - 07:03:16 10° NW 07:07:13 31° WSW 07:10:59 10° S daylight
13 Sep - 20:06:36 10° SE 20:08:55 13° ESE 20:11:25 10° E visible
13 Sep - 21:46:00 10° SSW 21:51:33 73° ESE 21:56:35 10° NE visible
13 Sep - 23:30:38 10° W 23:35:11 27° NW 23:39:22 10° NNE visible
14 Sep - 01:18:16 10° NNW 01:20:01 12° NNW 01:21:41 10° N visible
14 Sep - 03:03:41 10° N 03:05:23 12° NNE 03:07:07 10° NE visible
14 Sep - 04:46:05 10° NNW 04:50:08 30° NE 04:54:01 10° ESE visible
14 Sep - 06:29:12 10° NW 06:33:28 45° WSW 06:37:35 10° S daylight
14 Sep - 21:12:19 10° SSW 21:17:43 53° ESE 21:22:39 10° NE visible
14 Sep - 22:56:14 10° WSW 23:01:09 34° NW 23:05:37 10° NNE visible
